Date,TemperatureHighF,TemperatureAvgF,TemperatureLowF,DewpointHighF,DewpointAvgF,DewpointLowF,HumidityHigh,HumidityAvg,HumidityLow,PressureMaxIn,PressureMinIn,WindSpeedMaxMPH,WindSpeedAvgMPH,GustSpeedMaxMPH,PrecipitationSumIn
2013-2-1,14.3,11.2,6.3,6.0,2.8,-1.0,74,69,62,30.33,29.99,24,14,0,0.00
2013-2-2,24.7,19.6,13.1,21.0,15.3,6.0,89,83,72,30.27,29.96,18,9,0,0.00
2013-2-3,20.6,16.7,13.6,14.0,11.5,9.0,85,80,73,30.06,29.93,21,7,0,0.00
2013-2-4,25.6,21.0,12.6,23.0,18.0,8.0,91,88,80,30.07,29.83,11,5,0,0.02
2013-2-5,30.3,21.9,5.4,28.0,18.4,1.0,94,86,72,29.99,29.82,15,5,0,0.01
2013-2-6,30.6,25.5,16.5,26.0,17.1,10.0,87,71,53,30.27,30.00,12,4,0,0.02
2013-2-7,25.7,3.0,23.2,21.0,-86.3,-99.9,83,9,78,30.23,29.77,12,5,0,0.02
2013-2-8,-200.0,0.0,200.0,-99.9,-99.9,-99.9,0,0,100,30.28,29.74,25,10,0,0.00
2013-2-9,-200.0,0.0,200.0,-99.9,-99.9,-99.9,0,0,100,30.38,30.18,10,4,0,0.00
2013-2-10,-200.0,0.0,200.0,-99.9,-99.9,-99.9,0,0,100,30.17,29.63,21,8,0,0.00
2013-2-11,-200.0,0.0,200.0,-99.9,-99.9,-99.9,0,0,100,29.91,29.55,38,21,0,0.00
2013-2-12,-200.0,0.0,200.0,-99.9,-99.9,-99.9,0,0,100,30.03,29.87,21,10,0,0.00
2013-2-13,-200.0,0.0,200.0,-99.9,-99.9,-99.9,0,0,100,29.88,29.68,11,5,0,0.00
2013-2-14,-200.0,0.0,200.0,-99.9,-99.9,-99.9,0,0,100,29.88,29.66,29,14,0,0.00
2013-2-15,-200.0,0.0,200.0,-99.9,-99.9,-99.9,0,0,100,30.09,29.87,18,6,0,0.00
2013-2-16,-200.0,0.0,200.0,-99.9,-99.9,-99.9,0,0,100,30.07,29.96,20,8,0,0.00
2013-2-17,-200.0,0.0,200.0,-99.9,-99.9,-99.9,0,0,100,30.15,30.03,9,5,0,0.00
2013-2-18,-200.0,0.0,200.0,-99.9,-99.9,-99.9,0,0,100,30.12,29.53,30,14,0,0.00
2013-2-19,-200.0,0.0,200.0,-99.9,-99.9,-99.9,0,0,100,29.99,29.44,38,23,0,0.00
2013-2-20,-200.0,0.0,200.0,-99.9,-99.9,-99.9,0,0,100,30.23,29.99,21,13,0,0.00
2013-2-21,-200.0,0.0,200.0,-99.9,-99.9,-99.9,0,0,100,30.30,30.10,16,8,0,0.00
2013-2-22,-200.0,0.0,200.0,-99.9,-99.9,-99.9,0,0,100,30.10,29.80,24,9,0,0.00
2013-2-23,-200.0,0.0,200.0,-99.9,-99.9,-99.9,0,0,100,29.91,29.84,15,10,0,0.00
2013-2-24,-200.0,0.0,200.0,-99.9,-99.9,-99.9,0,0,100,30.10,29.88,19,6,0,0.00
2013-2-25,-200.0,0.0,200.0,-99.9,-99.9,-99.9,0,0,100,30.15,29.96,12,4,0,0.00
2013-2-26,-200.0,0.0,200.0,-99.9,-99.9,-99.9,0,0,100,29.95,29.36,18,-4,0,0.00
2013-2-27,-200.0,0.0,200.0,-99.9,-99.9,-99.9,0,0,100,29.56,29.37,17,10,0,0.00
2013-2-28,-200.0,0.0,200.0,-99.9,-99.9,-99.9,0,0,100,29.89,29.53,15,8,0,0.00